| time (UTC) | temp C | wind direction | speed KPH | gust KPH | rain 1hr cm | rain 24hr cm | rain mn cm | humidity % | barometer mb |
| 20260504034553 | 11 | 209 | 0.0 | 0.0 | 0.00 | 0.00 | 0.00 | 69 | 1012.9 |
| 20260504033054 | 10 | 208 | 0.0 | 0.0 | 0.00 | 0.00 | 0.00 | 76 | 1013.1 |
| 20260504031542 | 9 | 182 | 0.0 | 0.0 | 0.00 | 0.00 | 0.00 | 78 | 1013.3 |
| 20260504030026 | 9 | 182 | 0.0 | 0.0 | 0.00 | 0.00 | 0.00 | 77 | 1013.4 |
| 20260504024508 | 10 | 182 | 0.0 | 0.0 | 0.00 | 0.00 | 0.00 | 75 | 1013.5 |
| 20260504023008 | 10 | 182 | 0.0 | 0.0 | 0.00 | 0.00 | 0.00 | 72 | 1013.5 |
| 20260504021513 | 10 | 182 | 0.0 | 0.0 | 0.00 | 0.00 | 0.00 | 70 | 1013.6 |
| 20260504020006 | 11 | 182 | 0.0 | 0.0 | 0.00 | 0.00 | 0.00 | 67 | 1013.8 |
| 20260504014502 | 12 | 182 | 0.0 | 0.0 | 0.00 | 0.00 | 0.00 | 64 | 1013.7 |
| 20260504013119 | 12 | 182 | 0.0 | 0.0 | 0.00 | 0.00 | 0.00 | 61 | 1013.7 |
| 20260504011520 | 13 | 182 | 0.0 | 0.0 | 0.00 | 0.00 | 0.00 | 59 | 1013.8 |
| 20260504010020 | 14 | 182 | 0.0 | 0.0 | 0.00 | 0.00 | 0.00 | 55 | 1013.6 |
| 20260504004512 | 15 | 182 | 0.0 | 0.0 | 0.00 | 0.00 | 0.00 | 52 | 1013.3 |
| 20260504003007 | 15 | 182 | 0.0 | 0.0 | 0.00 | 0.00 | 0.00 | 50 | 1013.2 |
| 20260504001622 | 16 | 246 | 0.0 | 0.0 | 0.00 | 0.00 | 0.00 | 49 | 1013.1 |
| 20260504000101 | 16 | 153 | 0.0 | 9.7 | 0.00 | 0.00 | 0.00 | 47 | 1013.0 |
| 20260503234553 | 16 | 152 | 0.0 | 4.8 | 0.00 | 0.00 | 0.00 | 47 | 1012.9 |
| 20260503233038 | 16 | 186 | 0.0 | 6.4 | 0.00 | 0.00 | 0.00 | 46 | 1013.0 |
| 20260503231547 | 16 | 169 | 0.0 | 14.5 | 0.00 | 0.00 | 0.00 | 46 | 1012.9 |
| 20260503230032 | 16 | 154 | 0.0 | 12.9 | 0.00 | 0.00 | 0.00 | 46 | 1013.1 |
| 20260503224518 | 17 | 225 | 1.6 | 14.5 | 0.00 | 0.00 | 0.00 | 45 | 1013.6 |
| 20260503223014 | 16 | 246 | 0.0 | 9.7 | 0.00 | 0.00 | 0.00 | 44 | 1013.7 |
| 20260503221520 | 16 | 207 | 0.0 | 9.7 | 0.00 | 0.00 | 0.00 | 43 | 1014.2 |
| 20260503220014 | 17 | 134 | 0.0 | 8.0 | 0.00 | 0.00 | 0.00 | 42 | 1014.3 |
| 20260503214519 | 17 | 166 | 1.6 | 11.3 | 0.00 | 0.00 | 0.00 | 42 | 1014.3 |
| 20260503213058 | 17 | 240 | 4.8 | 19.3 | 0.00 | 0.00 | 0.00 | 41 | 1014.9 |
| 20260503211557 | 17 | 275 | 3.2 | 12.9 | 0.00 | 0.00 | 0.00 | 41 | 1015.1 |
| 20260503210046 | 17 | 219 | 0.0 | 12.9 | 0.00 | 0.00 | 0.00 | 40 | 1014.9 |
| 20260503204554 | 16 | 128 | 1.6 | 9.7 | 0.00 | 0.00 | 0.00 | 40 | 1015.0 |
| 20260503203035 | 16 | 167 | 1.6 | 6.4 | 0.00 | 0.00 | 0.00 | 39 | 1015.6 |
| 20260503201511 | 16 | 276 | 8.0 | 22.5 | 0.00 | 0.00 | 0.00 | 38 | 1015.7 |
| 20260503200003 | 16 | 208 | 1.6 | 12.9 | 0.00 | 0.00 | 0.00 | 40 | 1016.0 |
| 20260503194524 | 16 | 248 | 3.2 | 16.1 | 0.00 | 0.00 | 0.00 | 39 | 1016.3 |
| 20260503193055 | 16 | 224 | 4.8 | 11.3 | 0.00 | 0.00 | 0.00 | 39 | 1016.9 |
| 20260503191553 | 16 | 210 | 3.2 | 16.1 | 0.00 | 0.00 | 0.00 | 40 | 1017.2 |
| 20260503190039 | 16 | 235 | 3.2 | 14.5 | 0.00 | 0.00 | 0.00 | 38 | 1017.5 |
| 20260503184523 | 16 | 145 | 3.2 | 19.3 | 0.00 | 0.00 | 0.00 | 40 | 1017.7 |
| 20260503183012 | 15 | 240 | 1.6 | 9.7 | 0.00 | 0.00 | 0.00 | 38 | 1017.9 |
| 20260503181559 | 15 | 175 | 1.6 | 11.3 | 0.00 | 0.00 | 0.00 | 39 | 1018.3 |
| 20260503180053 | 15 | 221 | 3.2 | 19.3 | 0.00 | 0.00 | 0.00 | 39 | 1018.6 |
| 20260503174547 | 15 | 135 | 1.6 | 12.9 | 0.00 | 0.00 | 0.00 | 40 | 1018.6 |
| 20260503173105 | 15 | 271 | 1.6 | 12.9 | 0.00 | 0.00 | 0.00 | 39 | 1018.9 |
| 20260503171504 | 15 | 217 | 4.8 | 11.3 | 0.00 | 0.00 | 0.00 | 39 | 1019.0 |
| 20260503081524 | 0 | 321 | 0.0 | 0.0 | 0.00 | 0.00 | 0.00 | 91 | 1019.5 |
| 20260503071601 | 0 | 321 | 0.0 | 0.0 | 0.00 | 0.00 | 0.00 | 90 | 1019.3 |
| 20260503054505 | 1 | 321 | 0.0 | 0.0 | 0.00 | 0.00 | 0.00 | 88 | 1019.7 |
| 20260503053010 | 2 | 321 | 0.0 | 0.0 | 0.00 | 0.00 | 0.00 | 88 | 1019.6 |
| 20260503051514 | 2 | 321 | 0.0 | 0.0 | 0.00 | 0.00 | 0.00 | 88 | 1019.6 |
| 20260503050006 | 2 | 321 | 0.0 | 0.0 | 0.00 | 0.00 | 0.00 | 87 | 1019.5 |
| 20260503044510 | 2 | 321 | 0.0 | 0.0 | 0.00 | 0.00 | 0.00 | 86 | 1019.4 |
| 20260503043042 | 3 | 321 | 0.0 | 0.0 | 0.00 | 0.00 | 0.00 | 86 | 1019.4 |
| 20260503041549 | 3 | 321 | 0.0 | 0.0 | 0.00 | 0.00 | 0.00 | 85 | 1019.4 |
| 20260503040048 | 3 | 321 | 0.0 | 0.0 | 0.00 | 0.00 | 0.00 | 84 | 1019.5 |